RH
65 66 66 66 66 66 66 66 67 67 66 65 65 64 64 65 66 64 68 45 49 54 50 48 43 45 63 77 56 49 84 77 69 60 52 34 30 19 21 23 53 88 72 75 96
66 66 67 67 66 66 66 66 67 67 66 64 64 64 64 65 70 76 55 50 52 54 65 67 53 45 66 70 70 57 76 66 51 46 43 35 34 26 21 30 80 89 87 91 95
66 66 66 67 66 67 67 67 67 67 65 64 64 64 64 64 82 68 51 49 45 44 58 60 58 58 59 68 70 74 76 46 45 40 39 34 34 33 26 31 47 90 89 90 93
66 66 66 66 67 67 68 67 67 66 63 63 65 65 64 73 36 73 52 41 41 39 40 41 46 66 82 73 63 77 61 57 51 45 44 37 37 35 31 31 49 83 82 90 96
66 66 66 67 68 68 68 67 66 63 62 64 64 63 70 85 77 43 36 32 35 35 38 44 48 48 65 69 57 69 60 49 47 46 41 32 37 34 39 54 58 84 86 90 92
66 66 67 68 68 68 68 67 64 62 63 63 60 61 78 88 44 34 36 38 37 40 44 48 51 44 63 67 72 53 61 54 41 44 40 36 37 38 36 87 90 89 91 78 91
66 66 68 69 69 69 68 65 62 62 64 62 56 56 72 74 38 37 34 39 40 40 47 45 48 66 74 78 58 68 69 60 51 37 35 36 41 42 39 78 93 96 92 79 94
67 67 69 70 70 69 67 64 66 72 68 55 54 64 78 40 45 35 33 35 35 35 38 40 47 59 73 72 68 75 76 83 58 40 36 38 57 40 37 65 91 94 94 83 97
68 68 70 71 70 69 67 70 68 63 51 46 62 72 72 40 34 33 36 37 38 41 41 33 61 68 70 87 87 90 84 85 81 49 39 44 56 38 38 53 71 92 94 89 98
68 70 71 71 70 68 71 66 51 47 37 28 34 59 52 46 36 32 34 37 48 52 58 58 66 89 91 96 94 80 88 82 81 44 40 47 48 37 40 52 64 94 96 97 98
69 70 72 72 69 67 74 59 71 62 69 80 65 62 51 39 34 36 34 53 63 71 86 75 91 97 84 86 76 90 99 62 61 41 42 44 43 40 43 51 79 97 98 99 98
69 71 73 72 69 70 57 63 76 75 92 59 58 56 48 43 41 34 47 65 81 93 78 88 97 71 70 67 74 82 94 93 69 52 52 44 47 41 43 46 75 93 97 98 98
70 73 77 77 73 57 58 62 67 65 92 65 42 37 38 32 38 50 59 73 84 92 87 93 74 56 69 70 80 78 88 96 85 73 67 55 71 68 54 65 78 96 94 99 99
72 73 76 75 54 59 62 59 67 70 97 37 35 35 32 36 56 63 64 79 85 96 99 95 94 78 66 76 67 98 73 72 92 84 94 77 87 71 65 75 96 95 96 96 97
72 73 71 69 75 62 56 62 70 88 90 36 38 29 34 47 44 64 69 83 99 90 85 74 84 96 92 82 60 80 77 80 95 99 91 99 90 76 77 82 94 99 96 98 99
71 72 71 58 65 55 60 74 86 88 84 54 42 50 53 48 50 62 69 81 84 92 75 86 62 78 90 90 72 85 96 98 99 99 98 83 81 76 87 79 78 96 97 97 98
73 74 77 57 58 56 72 90 86 87 55 61 64 56 66 59 64 66 82 88 96 95 96 76 70 65 78 95 88 95 92 98 97 98 96 80 76 81 81 89 88 97 96 97 99
78 78 66 43 59 65 83 81 87 70 85 58 62 71 65 63 67 78 89 90 88 92 97 97 88 84 77 82 93 92 83 92 96 96 93 71 88 90 79 94 98 98 97 95 97
77 72 55 52 61 75 79 91 84 87 66 75 69 79 82 70 79 86 92 84 93 97 98 97 90 72 81 84 78 79 92 70 92 89 86 84 80 68 77 94 96 99 99 98 94
96 82 60 54 70 74 90 72 71 57 65 82 90 85 96 80 90 92 92 84 87 76 95 98 97 88 85 80 75 73 66 77 90 96 99 95 91 91 81 94 98 98 100 100 97
95 70 57 62 67 79 93 88 66 50 68 93 97 98 88 94 95 97 92 80 84 82 93 97 96 83 88 96 95 87 92 80 80 89 97 96 93 81 94 93 97 95 98 98 99
88 88 64 68 86 98 89 73 50 59 59 78 90 95 94 80 98 94 90 93 79 79 97 95 99 98 87 69 90 95 93 90 92 95 96 95 94 79 95 100 94 94 98 100 99
78 78 72 65 92 97 73 57 64 64 67 72 81 82 76 86 95 84 80 69 67 84 90 95 96 97 87 81 67 97 74 87 92 93 95 94 92 79 97 100 99 100 98 100 100
86 96 94 93 94 89 94 79 79 62 67 65 76 68 84 88 76 89 83 68 62 77 69 84 97 96 96 96 95 93 88 80 86 94 97 92 90 86 92 99 99 98 97 98 99
81 94 85 98 94 88 93 93 84 81 70 70 75 79 88 100 95 93 87 82 69 77 84 92 97 97 85 72 83 78 94 92 87 82 89 86 94 90 91 94 95 94 97 95 94
92 93 89 92 75 91 89 91 79 82 82 83 89 86 87 98 98 97 94 90 90 88 93 91 97 95 98 73 80 95 88 88 90 80 85 83 88 70 80 85 94 96 94 94 96
83 79 92 87 95 95 93 82 74 81 74 74 84 93 96 90 78 79 81 87 96 98 97 99 99 98 97 82 89 90 99 100 93 90 90 91 84 70 81 87 95 97 96 99 97
Wind_Speed
19 20 20 20 20 21 22 22 22 22 21 21 21 21 22 23 23 11 6 8 2 6 5 5 5 6 9 5 4 5 3 12 14 9 3 11 5 4 2 7 7 7 6 11 17
20 21 22 22 22 23 23 23 23 22 22 22 22 21 22 20 13 13 10 10 6 6 5 4 7 9 5 5 7 10 9 12 4 8 5 11 2 6 3 5 6 12 14 21 18
20 21 21 23 24 24 24 24 24 23 22 23 22 21 19 15 5 2 2 7 4 6 2 4 6 6 10 11 9 12 22 15 11 9 5 4 3 4 2 3 8 15 16 17 17
21 21 22 23 24 25 25 25 25 23 23 22 22 18 14 5 4 2 3 1 7 7 6 6 5 6 5 10 15 14 23 20 13 12 3 7 2 3 4 4 9 20 25 17 16
22 23 23 24 25 26 27 27 25 23 23 21 17 12 6 0 8 7 1 3 3 5 6 5 8 6 14 6 11 22 26 15 13 19 19 9 6 5 0 1 16 19 20 18 14
21 23 24 25 26 27 28 28 27 24 21 19 12 8 2 5 7 6 5 6 5 3 6 5 6 8 12 14 16 14 16 17 13 14 16 8 6 3 2 13 19 19 15 17 15
21 22 24 24 26 28 29 28 28 24 21 17 10 4 4 12 5 9 7 5 5 5 6 7 6 4 5 8 9 14 18 15 17 15 12 8 7 6 3 13 16 16 14 14 10
21 22 24 25 26 27 28 29 27 26 22 12 9 3 6 6 4 6 6 7 5 7 8 9 6 5 4 6 10 9 10 16 12 11 10 9 7 4 7 12 12 14 15 16 12
21 22 24 25 26 27 26 30 28 18 8 12 1 3 8 4 4 8 5 7 7 7 7 10 2 8 5 6 8 5 8 9 4 15 9 8 4 8 7 11 12 13 14 15 12
22 22 24 26 26 25 24 29 18 7 13 4 2 1 4 8 7 14 7 5 6 7 6 4 4 4 3 4 8 7 6 5 11 12 9 8 6 6 8 11 12 13 14 13 12
22 23 25 26 26 23 15 5 8 8 8 4 9 5 9 7 8 8 7 5 6 4 4 5 1 9 12 9 10 10 7 8 15 16 8 10 9 10 6 7 13 13 12 12 12
22 24 25 28 25 19 5 7 4 5 10 7 16 9 13 7 12 9 2 4 2 10 10 2 6 13 11 8 9 10 9 9 10 7 7 9 12 10 6 6 10 16 13 17 12
22 23 24 26 23 5 8 7 2 1 3 9 4 3 8 7 11 9 6 6 5 8 8 6 6 4 9 8 8 9 12 5 5 9 5 6 2 4 5 8 8 5 9 9 16
22 22 22 23 7 6 3 5 3 2 4 11 8 5 11 13 5 6 5 2 4 7 7 4 10 7 4 4 9 4 4 7 1 5 5 2 6 4 5 6 7 11 9 9 9
22 23 22 12 3 3 5 5 3 1 7 20 6 6 13 6 9 7 3 3 5 8 3 5 5 4 2 5 7 4 4 7 4 1 3 6 5 6 7 5 8 9 10 8 7
21 23 19 3 2 3 4 5 2 6 3 8 7 13 14 6 8 9 4 2 3 6 5 9 5 1 4 3 1 9 6 5 2 1 3 6 7 3 5 6 7 6 11 10 9
22 23 11 2 5 7 4 3 7 8 6 10 10 14 14 12 8 11 8 14 11 10 7 6 5 7 7 8 9 6 1 3 3 1 3 3 5 3 3 5 2 15 14 9 8
23 21 4 3 5 4 3 8 11 2 4 5 7 17 5 13 7 11 8 10 6 11 5 6 7 10 11 6 3 5 2 5 3 2 3 3 2 3 3 5 7 12 13 11 9
17 4 2 5 5 2 7 8 5 4 4 8 12 6 6 8 6 9 6 10 6 12 7 5 5 6 4 4 3 5 4 2 5 1 4 1 2 3 5 8 9 9 7 10 9
3 3 3 9 4 5 7 3 2 4 4 4 5 5 5 8 9 8 8 5 13 13 8 4 4 4 6 5 4 3 2 3 4 3 1 1 3 1 2 3 5 5 4 3 8
2 4 4 8 5 7 5 1 3 5 4 2 3 4 4 4 1 4 5 5 10 11 5 5 3 4 5 6 4 6 4 4 4 2 1 2 1 4 5 4 5 6 4 4 4
1 2 5 4 6 2 2 2 4 4 4 2 3 3 3 8 4 4 4 4 8 6 9 3 4 2 1 2 1 2 2 3 5 6 1 4 2 5 1 0 7 8 4 2 5
1 2 4 6 4 3 5 2 3 4 3 3 3 3 3 3 5 3 5 7 11 7 10 6 3 4 5 4 2 3 4 3 4 3 0 5 4 3 5 6 4 7 3 3 4
2 3 5 5 2 5 2 4 4 5 1 4 3 4 5 4 3 5 7 6 14 8 15 3 2 2 1 4 3 5 6 5 2 4 1 1 2 4 4 4 4 3 2 4 3
2 2 4 1 3 3 4 2 3 4 3 4 4 5 5 4 6 3 5 8 5 11 9 5 2 2 5 3 2 3 1 5 5 1 5 5 5 2 2 4 4 5 3 4 2
3 3 2 2 1 4 2 3 1 4 2 3 1 6 7 3 3 8 8 3 3 7 7 7 2 4 4 2 5 3 6 5 5 6 6 7 5 3 4 5 4 3 4 3 2
1 1 5 2 2 3 4 4 3 3 4 5 3 5 3 3 7 11 8 7 6 4 4 4 3 4 3 4 5 5 4 4 3 4 3 3 1 3 4 5 3 2 3 3 3
Wind_Direction
9 6 3 1 359 356 351 348 346 344 340 337 335 333 331 328 321 311 263 236 17 349 355 340 347 298 250 264 188 140 227 233 223 192 245 292 349 337 223 92 51 356 141 147 137
6 4 360 357 355 351 349 345 342 339 336 334 331 329 328 325 315 286 247 242 19 356 19 340 295 295 254 217 210 192 218 240 198 203 203 265 56 306 147 120 54 73 91 126 126
3 2 359 353 351 348 344 340 336 335 333 330 329 326 326 327 322 235 62 79 39 6 268 264 256 254 259 233 235 210 235 231 270 254 266 249 306 341 155 149 174 145 139 144 135
0 356 356 352 346 343 339 335 332 331 329 328 324 320 317 324 345 200 178 305 327 321 314 316 309 279 253 245 229 247 242 237 260 279 300 299 236 322 260 179 133 151 152 150 146
360 355 352 349 344 339 336 331 327 328 328 327 327 326 337 312 249 258 83 337 318 309 306 288 281 288 272 265 252 233 243 243 232 249 266 239 265 249 150 75 137 143 152 152 145
359 353 347 346 341 336 333 327 322 326 325 325 326 328 266 268 245 6 357 333 276 282 299 285 259 268 272 262 249 256 256 241 228 229 247 220 227 192 172 116 121 140 151 159 149
355 351 344 343 339 334 329 323 320 320 317 316 323 303 263 254 267 318 326 280 274 253 255 266 257 225 322 314 285 259 256 251 240 228 247 191 222 177 172 134 134 135 148 160 144
352 350 342 341 338 333 327 321 317 312 308 297 304 332 259 259 279 351 313 307 316 321 265 250 258 266 201 289 305 285 236 234 248 230 236 162 233 238 190 141 145 145 153 162 142
350 348 340 339 337 333 327 316 314 315 357 301 101 170 274 335 338 301 306 284 284 277 271 281 345 277 268 246 281 255 249 203 279 214 235 158 198 229 187 159 154 152 155 155 133
348 346 339 337 337 334 332 317 335 31 345 13 74 141 284 310 295 305 290 293 287 300 304 246 226 235 257 192 237 242 207 198 184 239 194 167 180 184 189 176 160 153 155 143 136
345 343 339 336 337 336 338 10 13 0 26 278 284 254 270 268 302 285 297 345 357 282 280 301 182 233 229 214 237 281 281 256 201 214 158 186 187 209 166 181 147 149 146 131 131
343 341 340 334 337 336 20 58 105 242 317 286 252 251 262 246 301 297 63 348 302 284 302 252 234 234 247 217 222 228 284 290 302 252 161 192 205 193 181 160 166 154 153 149 141
342 342 338 332 328 31 77 52 38 122 280 297 268 271 290 328 311 333 24 324 278 290 291 245 256 289 215 241 206 214 226 244 253 323 76 121 60 172 215 113 83 112 136 155 153
341 340 341 335 49 329 64 355 353 110 51 348 355 336 359 325 337 31 3 335 325 313 314 306 316 301 250 263 180 195 227 204 182 216 190 74 202 241 172 114 107 143 135 127 123
340 338 340 346 268 360 290 339 304 32 56 315 348 330 321 340 293 353 320 22 331 312 297 285 309 312 294 229 174 235 286 162 149 78 154 166 104 260 129 152 151 151 135 103 68
337 333 336 7 343 237 329 335 43 44 307 325 329 334 343 326 334 334 337 64 259 303 271 253 277 93 262 302 63 138 84 49 76 273 141 205 119 274 197 185 130 147 134 124 100
332 327 323 301 296 312 348 61 37 78 359 333 332 331 322 347 340 354 350 15 26 339 358 346 351 332 25 42 80 66 29 49 43 105 204 307 78 217 45 333 184 152 147 122 103
330 322 291 223 307 331 47 52 67 320 303 299 306 311 14 6 340 342 355 13 18 0 296 351 344 352 341 30 4 172 155 130 101 99 27 32 167 283 39 18 66 97 127 130 115
334 329 360 290 312 48 66 51 192 220 274 320 322 356 338 353 343 6 358 27 359 356 339 327 344 321 14 334 11 315 36 179 100 26 65 184 46 77 75 57 63 77 98 134 142
332 345 302 312 335 58 67 119 74 354 335 359 7 8 329 334 352 6 350 10 353 351 338 315 290 4 308 337 329 106 297 51 8 92 107 295 94 223 342 133 94 77 85 88 134
42 30 270 319 51 50 104 229 326 323 45 50 301 298 316 346 269 304 287 294 357 334 347 314 354 330 357 15 336 348 8 28 107 92 73 142 39 208 210 201 171 143 152 154 138
46 26 302 26 50 63 85 208 273 307 358 35 249 273 331 323 283 311 345 220 342 354 343 312 316 9 260 297 200 235 302 101 109 311 27 137 262 345 93 85 135 156 160 115 125
20 273 324 71 86 340 320 357 316 0 328 10 311 29 331 281 309 292 352 311 1 4 344 340 345 344 336 340 339 28 330 93 91 108 265 109 275 48 61 64 57 136 132 116 112
59 18 344 45 142 120 49 330 321 1 337 338 292 354 343 326 325 303 339 330 331 6 359 356 67 162 340 270 242 332 350 356 93 78 190 225 129 14 61 104 103 86 124 128 130
51 224 178 293 330 119 118 197 321 354 355 351 3 18 349 299 305 348 348 312 335 6 357 61 349 43 291 319 334 340 318 353 71 153 127 197 107 55 106 156 161 154 135 117 140
151 135 24 157 110 90 228 255 293 295 134 302 119 317 309 262 310 320 326 349 297 346 3 341 306 356 308 5 8 52 15 2 36 26 64 100 80 101 95 108 90 153 151 157 191
176 60 108 218 168 99 213 212 229 79 296 200 233 287 295 279 298 281 265 256 263 309 328 33 1 11 290 22 30 8 307 339 36 17 350 93 92 122 88 99 127 156 173 162 171